CZ-6A DEB

Satellite information

Favourite Embed

Satellite Type and Status

DEBRISIN ORBIT

Key statistics

Satellite CZ-6A DEB at a glance.

Uptime

970

Days in orbit

Revolutions

≈ 14.7

Per day

Orbit

SSO

Sun Synchronous Orbit

Inclination

98.7

Latest

Satellite identification and parameters

Extended collection of information and parameters for CZ-6A DEB.

Object identification

Identified? True

Debris? True

Object name: CZ-6A DEB

International designator: 2022-151ACK

Object number (NORAD): 56267

Object ID (CCSDS): 56267

Country: PEOPLES REPUBLIC OF CHINA (PRC)

Current information (Y/N): Y

RCS size: SMALL

Orbital parameters

Period: 97.68 minutes

Inclination: 98.6532 deg

SMA: 7025.815 km

Apoapsis: 697.062 km

Periapsis: 598.299 km

RAAN: 240.9171 deg

Eccentricy: 0.0070286

Argument of periapsis: 241.5972 deg

Mean anomaly: 117.8138 deg

Mean motion: 14.74204318 rev/day

Mean motion (dot): 0.00010927 rev/day2

B* drag term: 0.0015972 1/REarth

Two-line elements (TLE)

Creation date: July 8, 2025, 2:27 a.m.

Reference frame: TEME

Reference center: EARTH

Epoch: July 7, 2025, 9:02 p.m. UTC

TLE line 0: 0 CZ-6A DEB

TLE line 1: 1 56267U 22151ACK 25188.87658121 .00010927 00000-0 15972-2 0 9994

TLE line 2: 2 56267 98.6532 240.9171 0070286 241.5972 117.8138 14.74204318128046

Live tracking on map

Real-time ground track for satellite CZ-6A DEB.

In-orbit conjunctions

A list of the most updated potential collisions computed for object CZ-6A DEB.

Target Orbit TCA Probability of collision Miss distance Type
PSLV R/B SSO 2025-05-22 07:23:53 0.0007735244 78.0 (m) ROCKET BODY
COSMOS 44 LEO 2024-09-17 12:36:29 0.0003285983 63.0 (m) PAYLOAD

Associated space launch

Chinese satellite reported for atmospheric/ocean/environmental/spatial parameter research purposes, details TBD.

CZ-6A DEB was lifted into orbit during the mission ‘Long March 6A | Yunhai 3’, on board a Long March 6A space rocket.

The launch took place on Nov. 11, 2022, 10:52 p.m. from Launch Complex 9A.

For more information about the launch, click the button.

Launch to space Long March 6A | Yunhai 3
Long March 6A | Yunhai 3

Agency: N/A

Status: Launch Successful

Launch date: Nov. 11, 2022, 10:52 p.m. UTC

Rocket: Long March 6A

Launch pad: Launch Complex 9A

Location: Taiyuan Satellite Launch Center, People's Republic of China

...

Latest news about this satellite

There are no fresh news available about this satellite. Check back as we update our databases every day.


Newsletter sign-up

Weekly statistics, charts and insights to help you stay on top of the space industry.